Flag for U.S.A. Weather past 2 weeks in Lynchburg, Virginia, U.S.A.

64 °F


Feels Like: 64 °F
Forecast: 48 / 59 °F
Wind: No wind

Location: Lynchburg Regional Airport

Current Time: Nov 29, 2015 at 3:34:35 PM

Latest Report: Nov 29, 2015 at 2:54 PM

Visibility: 10 mi

Pressure: 30.11 "Hg

Humidity: 70%

Dew point: 54 °F

Location of LynchburgLocation

Historic Weather in Lynchburg — Graph


Lynchburg temperature yesterday

Maximum temperature yesterday: 69 °F (at 1:54 PM)
Minimum temperature yesterday: 40 °F (at 12:54 AM)
Average temperature yesterday: 56 °F

Past Weeks' High & Low Weather Summary

High69 °F (Nov 19, 2:54 PM)100% (Nov 19, 1:54 AM)30.80 "Hg (Nov 19, 1:54 AM)
Low26 °F (Nov 24, 6:54 AM)18% (Nov 20, 3:54 PM)29.91 "Hg (Nov 22, 2:54 AM)
Average48 °F65%30.31 "Hg
* Reported Nov 14 1:54 PM — Nov 29 1:54 PM, Lynchburg, Weather by CustomWeather, © 2015

Note: Actual official high and low records may vary slightly from our data, if they occured in-between our weather recording intervals... More about our weather records


Lynchburg weather history for previous 24 hours

Time TempWeatherWind HumidityBarometerVisibility
1:54 PM
Sun, Nov 29
64 °FOvercast.3 mph70%30.11 "Hg10 mi
12:54 PM65 °FMostly cloudy.5 mph68%30.14 "Hg10 mi
11:54 AM63 °FOvercast.6 mph75%30.14 "Hg10 mi
10:54 AM60 °FPartly sunny.3 mph86%30.17 "Hg10 mi
9:54 AM57 °FMostly cloudy.5 mph93%30.18 "Hg10 mi
8:54 AM55 °FLight rain. Fog.3 mph100%30.19 "Hg6 mi
7:54 AM54 °FOvercast.No wind97%30.17 "Hg10 mi
6:54 AM55 °FPartly cloudy.No wind93%30.17 "Hg10 mi
5:54 AM56 °FMostly cloudy.6 mph93%30.16 "Hg10 mi
4:54 AM55 °FMostly cloudy.No wind96%30.14 "Hg10 mi
3:54 AM56 °FLight rain. Mostly cloudy.No wind93%30.15 "Hg9 mi
2:54 AM57 °FLight rain. Overcast.No wind83%30.16 "Hg10 mi
1:54 AM57 °FLight rain. Overcast.3 mph81%30.17 "Hg10 mi
12:54 AM55 °FOvercast.No wind87%30.17 "Hg10 mi
11:54 PM
Sat, Nov 28
56 °FOvercast.No wind84%30.17 "Hg10 mi
10:54 PM56 °FOvercast.No wind84%30.19 "Hg10 mi
9:54 PM59 °FMostly cloudy.3 mph72%30.19 "Hg10 mi
8:54 PM60 °FOvercast.3 mph67%30.19 "Hg8 mi
7:54 PM59 °FOvercast.No wind69%30.19 "Hg10 mi
6:54 PM61 °FOvercast.3 mph65%30.18 "Hg10 mi
5:54 PM61 °FOvercast.No wind65%30.18 "Hg10 mi
4:54 PM64 °FOvercast.3 mph58%30.17 "Hg10 mi
3:54 PM66 °FPassing clouds.3 mph52%30.17 "Hg10 mi
Weather by CustomWeather, © 2015

See weather overviewHow to use our weather pages